Harrison, AR

10:19 PM CDT on March 22, 2017 (GMT -0500)
Boone County

Weather History for KHRO - January, 2013

Change the Weather History Date:

Tuesday, January 15, 2013

  Actual Average Record
Temperature  
Mean Temperature 23 °F 36 °F  
Max Temperature 31 °F 46 °F 72 °F (1928)
Min Temperature 14 °F 26 °F -5 °F (1905)
Degree Days  
Heating Degree Days 42 29  
Month to date heating degree days 432 435  
Since 1 July heating degree days 1840 2034  
Cooling Degree Days 0 0  
Month to date cooling degree days 0 0  
Year to date cooling degree days 0 0  
Moisture  
Dew Point 17 °F    
Average Humidity 79    
Maximum Humidity 88    
Minimum Humidity 69    
Precipitation  
Precipitation T in 0.08 in 1.12 in (1962)
Month to date precipitation 1.27 1.26  
Year to date precipitation 1.27 1.26  
Snow  
Snow T in 0.10 in 1.00 in (1930)
Month to date snowfall T 1.5  
Since 1 July snowfall 0.3 3.3  
Snow Depth 0.00 in    
Sea Level Pressure  
Sea Level Pressure 30.26 in    
Wind  
Wind Speed 4 mph (NNW)    
Max Wind Speed 9 mph    
Max Gust Speed 13 mph    
Visibility 10 miles    
Events Snow    
T = Trace of Precipitation, MM = Missing Value Source: NWS Daily Summary

Daily Weather History Graph

Daily Weather History Graph

Search for Another Location

Airport or City:

Trip Planner

Search our weather history database for the weather conditions in past years. The results will help you decide how hot, cold, wet, or windy it might be!

Date:

Astronomy

Jan. 15, 2013 Rise Set
Actual Time 7:23 AM CST 5:21 PM CST
Civil Twilight 6:55 AM CST 5:49 PM CST
Nautical Twilight 6:23 AM CST 6:21 PM CST
Astronomical Twilight 5:52 AM CST 6:52 PM CST
Moon 9:38 AM CST (1/15) 10:01 PM CST (1/15)
Length of Visible Light 10h 54m
Length of Day
9h 58m
Waxing Crescent, 19% of the Moon is Illuminated
Jan 15
Waxing Crescent
Jan 18
First Quarter
Jan 26
Full
Feb 3
Last Quarter
Feb 10
New

Hourly Weather History & Observations

Time (CST) Temp. Windchill Dew Point Humidity Pressure Visibility Wind Dir Wind Speed Gust Speed Precip Events Conditions
12:53 AM 19.0 °F - 14.0 °F 81% 30.35 in 10.0 mi Calm Calm - N/A   Clear
1:53 AM 17.1 °F - 14.0 °F 88% 30.35 in 10.0 mi Calm Calm - N/A   Clear
2:53 AM 17.6 °F 12.3 °F 14.0 °F 86% 30.29 in 10.0 mi NNW 3.5 mph - N/A   Clear
3:53 AM 17.1 °F 11.7 °F 12.9 °F 84% 30.31 in 10.0 mi North 3.5 mph - N/A   Clear
4:53 AM 16.0 °F - 12.9 °F 88% 30.32 in 10.0 mi Calm Calm - N/A   Clear
5:53 AM 16.0 °F 10.4 °F 12.0 °F 84% 30.31 in 10.0 mi NNW 3.5 mph - N/A   Clear
6:53 AM 17.1 °F - 12.9 °F 84% 30.31 in 10.0 mi Calm Calm - N/A   Clear
7:53 AM 19.0 °F - 12.9 °F 77% 30.32 in 10.0 mi Calm Calm - N/A   Clear
8:53 AM 19.0 °F 10.0 °F 14.0 °F 81% 30.31 in 10.0 mi NW 6.9 mph - N/A   Mostly Cloudy
9:53 AM 19.9 °F 12.1 °F 15.1 °F 81% 30.36 in 10.0 mi NW 5.8 mph - N/A   Overcast
10:53 AM 21.0 °F - 15.1 °F 78% 30.34 in 10.0 mi Calm Calm - N/A   Overcast
11:53 AM 21.9 °F 15.7 °F 16.0 °F 78% 30.29 in 10.0 mi SE 4.6 mph - 0.00 in   Overcast
12:53 PM 24.1 °F 16.0 °F 19.0 °F 81% 30.24 in 5.0 mi ESE 6.9 mph - 0.00 in Snow Light Snow
1:13 PM 26.6 °F 18.2 °F 19.4 °F 74% 30.17 in 6.0 mi SE 8.1 mph - 0.00 in Snow Light Snow
1:21 PM 24.8 °F 15.3 °F 19.4 °F 80% 30.17 in 7.0 mi SSE 9.2 mph - 0.00 in Snow Light Snow
1:53 PM 27.0 °F 21.6 °F 21.0 °F 78% 30.21 in 10.0 mi ESE 4.6 mph - 0.00 in   Mostly Cloudy
2:53 PM 30.9 °F 26.2 °F 21.9 °F 69% 30.19 in 10.0 mi NNE 4.6 mph - N/A   Mostly Cloudy
3:53 PM 28.9 °F 23.9 °F 21.0 °F 72% 30.22 in 10.0 mi NE 4.6 mph - N/A   Overcast
4:53 PM 28.4 °F 23.3 °F 19.4 °F 69% 30.17 in 10.0 mi North 4.6 mph - N/A   Overcast
5:53 PM 28.0 °F 24.2 °F 19.9 °F 72% 30.22 in 10.0 mi NW 3.5 mph - N/A   Overcast
6:53 PM 28.0 °F 24.2 °F 19.9 °F 72% 30.22 in 10.0 mi NW 3.5 mph - N/A   Overcast
7:53 PM 27.0 °F 23.0 °F 19.0 °F 72% 30.21 in 10.0 mi NW 3.5 mph - N/A   Scattered Clouds
8:53 PM 27.0 °F 21.6 °F 19.0 °F 72% 30.19 in 10.0 mi NW 4.6 mph - N/A   Mostly Cloudy
9:53 PM 27.0 °F 20.5 °F 19.9 °F 75% 30.20 in 10.0 mi West 5.8 mph - N/A   Overcast
10:53 PM 26.1 °F 19.4 °F 19.0 °F 75% 30.19 in 10.0 mi NW 5.8 mph - N/A   Mostly Cloudy
11:53 PM 24.1 °F 17.0 °F 19.0 °F 81% 30.19 in 10.0 mi WNW 5.8 mph - N/A   Clear